www.pogodaiklimat.ru

Погода и климат >> Архив погоды >> Беларусь >> Пружаны


ПОГОДА в Пружанах

  • Прогноз погоды в Пружанах
  • Монитор погоды в Пружанах
  • Климат города

АРХИВ ПОГОДЫ в Пружанах

Время (UTC), дата Ветер
(напр.,м/с)
 
Видим.   Явления Облачность Т
(С)
Тd
(С)
f
(%)
Тe
(С)
Тes
(С)
Комфортность P
(гПа)
Po
(гПа)
Тmin
(С)
Tmax
(С)
R
(мм)
R24
(мм)
S
(см)
18 12.09 СЗ 4
{10}
10 км 6 баллов +14.1 +12.7 91 +13 +13 1004.0 984.3 +22.8
06 13.09 З 4 10 км 10 баллов +13.5 +12.6 94 +12 +12 1007.0 987.2 +12.8 1
09 13.09 З 4 10 км 10 баллов +15.9 +11.7 76 +15 +15 1008.0 988.4
12 13.09 ЮЗ 4 10 км 10 баллов +17.7 +9.6 59 +17 +17 1008.0 988.5
15 13.09 ЮЗ 4 10 км 10 баллов +17.5 +9.9 61 +17 +17 1006.0 986.5
18 13.09 Ю 4 10 км 10 баллов +15.5 +9.4 67 +15 +15 1006.0 986.3 +19.3
06 14.09 ЮЗ 5
{11}
10 км 10 баллов +16.3 +10.8 70 +15 +15 1002.0 982.5 +13.4 0.1
09 14.09 ЮЗ 4
{15}
10 км 10 баллов +19.6 +13.5 68 +21 +21 комфорт 1002.0 982.7
12 14.09 ЮЗ 3
{11}
10 км 10 баллов +18.2 +13.9 76 +19 +19 1003.0 983.6
15 14.09 ЮЗ 2 10 км 10 баллов +19.4 +14.8 75 +22 +22 комфорт 1001.0 981.7
18 14.09 З 3 8000 м ливневой дождь 10 баллов +17.3 +15.1 87 +17 +17 1002.0 982.6 +20.5
06 15.09 ЮЗ 5
{11}
10 км 10 баллов +10.9 +8.8 87 +8 +8 1007.0 987.0 +10.5 4
09 15.09 ЮЗ 6
{11}
10 км 10 баллов +12.9 +8.2 73 +11 +11 1009.0 989.1
12 15.09 З 5
{13}
10 км 10 баллов +14.1 +7.4 64 +12 +12 1012.0 992.1
15 15.09 ЮЗ 4
{10}
10 км 10 баллов +13.8 +7.6 66 +12 +12 1013.0 993.1
18 15.09 ЮЗ 2 10 км 6 баллов +11.7 +8.2 79 +11 +11 1015.0 994.9 +15.8
06 16.09 Ю 2 10 км 3 балла +10.2 +8.5 89 +9 +10 1017.0 996.8 +7.7
09 16.09 ЮВ 3 10 км 10 баллов +15.0 +10.4 74 +14 +14 1018.0 998.1
12 16.09 ЮВ 5 8000 м ливневой дождь 10 баллов +14.2 +12.1 87 +12 +12 1017.0 997.1
15 16.09 В 4 8000 м ливневой дождь 10 баллов +13.4 +11.3 87 +12 +12 1017.0 997.0
18 16.09 В 4 10 км 10 баллов +12.7 +10.1 84 +11 +11 1016.0 996.0 +15.1 0.3
06 17.09 В 1 10 км ливневой дождь 10 баллов +10.9 +10.0 94 +10 +10 1013.0 992.9 +9.5
09 17.09 штиль 0 10 км ливневой дождь 10 баллов +13.5 +11.7 89 +13 +13 1013.0 993.1
12 17.09 В 3 9000 м ливневой дождь 10 баллов +13.9 +12.8 93 +13 +13 1011.0 991.2
15 17.09 штиль 0 6000 м ливневой дождь 10 баллов +14.1 +13.9 99 +14 +14 1010.0 990.2
18 17.09 СВ 2 10 км ливневой дождь 10 баллов +13.8 +12.9 94 +13 +13 1008.0 988.2 +14.2 6
06 18.09 ЮЗ 7
{18}
8000 м ливневой дождь 10 баллов +11.2 +9.1 87 +8 +8 1001.0 981.2 +10.6 0.6
09 18.09 ЮЗ 8
{18}
10 км ливневой дождь 10 баллов +12.3 +9.1 81 +9 +9 1003.0 983.2
12 18.09 ЮЗ 9
{18}
10 км 10 баллов +14.0 +8.4 69 +11 +11 1005.0 985.3
15 18.09 З 8
{18}
10 км ливневой дождь 10 баллов +13.1 +9.0 76 +10 +10 1009.0 989.1
18 18.09 З 5
{15}
10 км 10 баллов +11.3 +7.8 79 +9 +9 1013.0 992.9 +14.2
06 19.09 ЮЗ 3
{10}
10 км 3 балла +8.1 +7.3 95 +5 +6 1017.0 996.6 +5.9
09 19.09 ЮЗ 3 10 км 3 балла +15.4 +8.2 62 +15 +19 1018.0 998.1
12 19.09 З 2 10 км 10 баллов +17.1 +7.7 54 +17 +17 1018.0 998.2
15 19.09 Ю 1 10 км 10 баллов +16.5 +8.2 58 +17 +17 1017.0 997.2

 

Местоположение метеостанции Пружаны (Брестская область, Беларусь): широта 52.55 долгота 24.49 высота над уровнем моря 167 м.

В архиве по умолчанию представлена погода в Пружанах за последнюю неделю. Архивные данные за месяц целиком и за предыдущие месяцы, начиная с января 2011 года, Вы можете получить, выбрав интересующий диапазон дат из раскрывающегося списка и нажав кнопку "Ввод!".

Внимание! Время в таблицах - всемирное. Для получения местного времени необходимо прибавить поправку, которая в Пружанах равна 3 ч.

Смотрите также архив погоды в соседних городах и на ближайших метеорологических станциях:

Погода в Ивацевичах (Брестская область, Беларусь) (61 км)
Погода в Волковыске (Гродненская область, Беларусь) (69 км)
Погода в Бресте (Брестская область, Беларусь) (72 км)
Погода в Высоком (Брестская область, Беларусь) (77 км)
Погода в Terespol (Польша) (80 км)
Погода в Bialystok (Польша) (108 км)
Погода в Любешове (Волынская область, Украина) (111 км)
Погода в Пинске (Брестская область, Беларусь) (117 км)
Погода в Гродно (Гродненская область, Беларусь) (121 км)
Погода в Свитязи (Волынская область, Украина) (122 км)

Пояснения к столбцам:

Ветер - указаны скорость ветра в м/с - средняя за 10 мин, порывы в срок и между сроками (в фигурных скобках) и направление, откуда дует ветер: С - северный, СВ - северо-восточный, В - восточный, ЮВ - юго-восточный, Ю - южный, ЮЗ - юго-западный, З - западный, СЗ - северо-западный.
Видимость - горизонтальная дальность видимости в метрах или километрах. При видимости от 1 до 10 км при отсутствии осадков обычно наблюдается дымка, при ухудшении видимости до 1 км и менее - туман. В сухую погоду видимость может ухудшаться дымом, пылью или мглою.
Явления - указаны атмосферные явления, наблюдавшиеся в срок или в последний час перед сроком; фигурными скобками обозначены явления, наблюдавшиеся между сроками (за 1-3 часа до срока); квадратными скобками обозначены град или гололедные отложения с указанием их диаметра в мм.
Облачность - указаны через наклонную черту общая и нижняя облачность в баллах и высота нижней границы облаков в метрах; квадратными скобками обозначены формы облаков: Ci - перистые, Cs - перисто-слоистые, Cc - перисто-кучевые, Ac - высококучевые, As - высокослоистые, Sc - слоисто-кучевые, Ns - слоисто-дождевые, Cu - кучевые, Cb - кучево-дождевые. Подробнее классификацию облаков см. в Атласе облаков (PDF).
T - Температура воздуха - температура, измеренная на высоте 2 м над землей.
Td - Температура точки росы - температура, при понижении до которой содержащийся в воздухе водяной пар достигнет насыщения.
f - Относительная влажность воздуха - влажноcть воздуха, измеренная на высоте 2 м над землей.
Te - Эффективная температура - температура, которую ощущает одетый по сезону человек в тени. Характеристика душности погоды. При расчете учитывается влияние влажности воздуха и скорости ветра на теплоощущения человека.
Tes - Эффективная температура на солнце - температура, которую ощущает человек, с поправкой на солнечный нагрев. Характеристика знойности погоды. Зависит от высоты солнца над горизонтом, облачности и скорости ветра. Ночью, в пасмурную погоду, а также при ветре 12 м/с и более поправка равна нулю.
P - Атмосферное давление - приведенное к уровню моря атмосферное давление.
Po - Атмосферное давление - измеренное на уровне метеостанции атмосферное давление.
Tmin - Минимальная температура - минимум температуры воздуха на высоте 2 м над землей.
Tmax - Максимальная температура - максимум температуры воздуха на высоте 2 м над землей.
R - Количество осадков - Количество выпавших осадков за период времени, мм. При наведении курсора мыши на число - период времени, за который выпало указанное количество осадков.
R24 - Количество осадков - Количество выпавших осадков за 24 часа, мм.
S - Снежный покров - Высота снежного покрова, см. При наведении курсора мыши на число - состояние снежного покрова и степень покрытия местности в баллах.